Regional Weather Roundup
Issued by NWS Boston, MA

Home | Current Version | Previous Version | Text Only | Print | Product List | Glossary On
Versions: 1 2 3 4 5 6 7 8 9 10 11 12 13 14 15 16 17 18 19 20 21 22 23 24 25 26 27 28 29 30 31 32 33 34 35 36 37 38 39 40 41 42 43 44 45 46 47 48 49 50
000
ASUS41 KBOX 080410
RWRBOX

REGIONAL WEATHER ROUNDUP
NATIONAL WEATHER SERVICE TAUNTON MA
1100 PM EST SUN FEB 07 2016

NOTE:  "FAIR" INDICATES FEW OR NO CLOUDS BELOW 12,000 FEET WITH NO
SIGNIFICANT WEATHER AND/OR OBSTRUCTIONS TO VISIBILITY.  THE FOLLOWING
OBSERVATION LOCATIONS DO NOT REPORT PRESENT WEATHER...PROVINCETOWN...
SMITHFIELD...BLOCK ISLAND...KEENE...AND OXFORD.

MAZALL-080500-
EASTERN MASSACHUSETTS

CITY           SKY/WX    TMP DP  RH WIND       PRES   REMARKS
BOSTON         CLOUDY    38  29  70 NE21      30.05F WCI  28
BEVERLY        CLOUDY    37  26  64 NE9       30.06F WCI  30
LAWRENCE       CLOUDY    36  27  69 NE8       30.08F WCI  30
BEDFORD        CLOUDY   N/A N/A N/A NE8         N/A
BLUE HILL        N/A     35  28  75 E18G28    30.00F WCI  24
NORWOOD        CLOUDY    38  29  70 NE9       30.03F WCI  31
MARSHFIELD     MOCLDY    39  32  75 E22G29    30.05S WCI  29
PLYMOUTH       MOCLDY    38  31  76 E13G18    30.01F WCI  30
TAUNTON        CLOUDY    34  29  82 N3        30.01F
NEW BEDFORD    CLOUDY    36  31  82 NE9       29.99F WCI  29
$$

MAZALL-080500-
CAPE COD AND THE ISLANDS

CITY           SKY/WX    TMP DP  RH WIND       PRES   REMARKS
FALMOUTH       CLOUDY    37  32  81 NE14G21   29.99F WCI  29
HYANNIS        MOCLDY    38  30  73 NE10      29.98F WCI  31
CHATHAM        CLOUDY    39  32  76 NE20G26   30.00F WCI  29
PROVINCETOWN   CLOUDY    39  31  72 E18G26    30.03F WCI  30
NANTUCKET      CLOUDY    42  33  70 NE21G28   29.95F
MARTHAS VNYRD  MOCLDY    39  33  79 NE16      29.97F WCI  30
$$

MAZALL-080500-
CENTRAL AND WESTERN MASSACHUSETTS

CITY           SKY/WX    TMP DP  RH WIND       PRES   REMARKS
WORCESTER      PTCLDY    30  24  78 NE9G17    29.99F WCI  22
FITCHBURG      CLOUDY    27  23  85 CALM      30.06F
ORANGE         CLOUDY    22  20  92 NW3       30.03F
SPRINGFIELD    CLOUDY    33  24  67 NE7       30.00F WCI  27
WESTFIELD      CLOUDY    31  22  69 N8        30.01F WCI  23
NORTH ADAMS    CLOUDY    33  22  63 E8        30.00F WCI  26
PITTSFIELD     CLOUDY    29  21  72 CALM      29.96F
$$

RIZALL-080500-
RHODE ISLAND

CITY           SKY/WX    TMP DP  RH WIND       PRES   REMARKS
PROVIDENCE     CLOUDY    35  29  78 NE13      30.00F WCI  26
NEWPORT        CLOUDY    37  30  75 NE14      29.98F WCI  28
BLOCK ISLAND   MOCLDY    39  34  81 NE16G26   29.94F WCI  30
SMITHFIELD     PTCLDY    34  27  75 NE9       29.99F WCI  26
WESTERLY       CLOUDY    35  29  78 NE7       29.98F WCI  29
$$

CTZALL-080500-
CONNECTICUT

CITY           SKY/WX    TMP DP  RH WIND       PRES   REMARKS
BRADLEY INTL   CLOUDY    31  23  72 N6        30.00F WCI  25
HARTFORD       CLOUDY    36  25  64 NE7       30.00F WCI  30
BRIDGEPORT     CLOUDY    39  24  55 NE12      29.97F WCI  32
DANBURY        PTCLDY    34  22  61 E7        29.97F WCI  28
GROTON         MOCLDY    36  32  85 NE14      29.97F WCI  27
NEW HAVEN      CLOUDY    37  23  56 NE10      29.97F WCI  30
CHESTER        FAIR      36  27  69 NE7       29.96F WCI  30
MERIDEN        PTCLDY    37  22  54 NE6       29.99F
WILLIMANTIC    CLOUDY    34  26  72 NE7       30.00F WCI  28
OXFORD         PTCLDY    34  18  51 NE8       29.97F WCI  27
$$

MEZ002-015-021-024-NHZ003-005-008-011-012-014-VTZ005-008-080500-
NORTHERN NEW ENGLAND

CITY           SKY/WX    TMP DP  RH WIND       PRES   REMARKS
PORTLAND ME    PTCLDY    31  17  56 NE13G25   30.15S WCI  21
BANGOR ME      CLOUDY    18   0  45 NE10      30.26F WCI   6
CONCORD NH     PTCLDY    29  22  75 NE7       30.09F WCI  22
MANCHESTER NH  PTCLDY    31  25  78 N6        30.06F WCI  25
NASHUA NH      CLOUDY    28  25  86 NW5       30.07F WCI  23
PORTSMOUTH NH  MOCLDY    37  27  67 NE12      30.08F WCI  29
JAFFREY NH     CLOUDY    31  23  72 VRB3      30.02F
KEENE NH       CLOUDY    28  19  69 NE5       30.05F WCI  23
BURLINGTON VT  FAIR      20  10  65 NW7       30.10F WCI  11
MT. WASHINGTON MOCLDY    14   7  73 SE10        N/A  WCI   1
$$

NYZ052-076-080500-
EASTERN NEW YORK

CITY           SKY/WX    TMP DP  RH WIND       PRES   REMARKS
ALBANY         CLOUDY    30  22  72 N3        30.02F
NEW YORK CITY  CLOUDY    40  31  70 NE17      29.93F WCI  31
$$

ANZALL-080500-
MARINE OBSERVATIONS

STATION/POSITION TIME  TEMP    WIND        PRES    VSBY  WAVE
                       AIR SEA DIR/SP/G                  HT/PER
                 (UTC) (F)     (DEG/KT/KT) (MB)    (MI)  (FT/S)
BOSTON BUOY      0350   41 42   80/ 21/ 25 1016.9F         3/ 5
BUZZARDS BAY     0300           50/ 17/ 18 1016.1F
NANTUCKET SOUND  0350   42 40   60/ 21/ 25 1014.0F         4/ 4
MASS BAY-STELLWA 0304   41 43   70/ 19/ 23   N/A    1 7/8  3/ 4
ISLE OF SHOALS   0300   40      70/ 25/ 26 1018.2F
S OF BLOCK IS    NOT AVBL
$$

......................KEY.........................
  SKY/WX - SKY CONDITION/PRESENT WEATHER
  TMP    - TEMPERATURE IN FAHRENHEIT
  DWPT   - DEWPOINT IN FAHRENHEIT
  RH     - RELATIVE HUMIDITY IN PERCENT
  WIND   - DIRECTION AND SPEED IN MPH
  PRES   - MEAN SEA LEVEL PRESSURE IN INCHES OF HG
  WCI    - WIND CHILL INDEX
  VSB    - VISIBILITY IN MILES
  HX     - HEAT INDEX
  TC     - TEMPERATURE IN CELSIUS
  VRB    - VARIABLE WIND DIRECTION
  N/A    - NOT AVAILABLE



USA.gov is the U.S. government's official web portal to all federal, state and local government web resources and services.